AAL144 PHNL-KLAX

Flight info

Callsign AAL144
Flight time N/A
Altitude 31000
Route MKK5 CODDY EBBER R577 ETNIC/N0463F330 R577 ELKEY RYDRR2
Aircraft A321/M-SDE3FGHIRWY/LB1

Departure

Time 2026-05-06 14:25
Airport Daniel K. Inouye International Airport (PHNL)

Arrival

Time N/A
Airport Los Angeles International Airport (KLAX)
Time Latitude Longitude Altitude Speed Heading
2026-05-06 13:56 21.33013 -157.92301 11 ft 0 kts 278°
2026-05-06 14:09 21.33012 -157.92294 11 ft 4 kts 278°
2026-05-06 14:09 21.33008 -157.92265 13 ft 4 kts 278°
2026-05-06 14:10 21.33004 -157.92239 12 ft 2 kts 278°
2026-05-06 14:10 21.32998 -157.92221 10 ft 4 kts 348°
2026-05-06 14:10 21.32974 -157.92222 11 ft 3 kts
2026-05-06 14:10 21.32947 -157.92226 11 ft 4 kts
2026-05-06 14:11 21.32921 -157.92230 10 ft 4 kts
2026-05-06 14:11 21.32894 -157.92235 12 ft 4 kts
2026-05-06 14:11 21.32867 -157.92239 12 ft 4 kts
2026-05-06 14:11 21.32840 -157.92243 12 ft 4 kts
2026-05-06 14:12 21.32816 -157.92247 12 ft 4 kts 16°
2026-05-06 14:12 21.32792 -157.92260 12 ft 4 kts 46°
2026-05-06 14:12 21.32779 -157.92283 15 ft 4 kts 76°
2026-05-06 14:12 21.32775 -157.92311 11 ft 3 kts 90°
2026-05-06 14:13 21.32775 -157.92315 11 ft 0 kts 90°
2026-05-06 14:15 21.32775 -157.92314 11 ft 0 kts 90°
2026-05-06 14:15 21.32775 -157.92304 11 ft 3 kts 90°
2026-05-06 14:15 21.32775 -157.92274 14 ft 5 kts 91°
2026-05-06 14:15 21.32748 -157.92252 13 ft 6 kts 168°
2026-05-06 14:16 21.32700 -157.92266 15 ft 8 kts 230°
2026-05-06 14:16 21.32693 -157.92342 13 ft 12 kts 270°
2026-05-06 14:16 21.32694 -157.92447 13 ft 16 kts 270°
2026-05-06 14:16 21.32693 -157.92580 13 ft 20 kts 269°
2026-05-06 14:17 21.32696 -157.92725 12 ft 19 kts 280°
2026-05-06 14:17 21.32739 -157.92858 11 ft 19 kts 276°
2026-05-06 14:17 21.32742 -157.92997 11 ft 18 kts 270°
2026-05-06 14:17 21.32743 -157.93126 13 ft 17 kts 270°
2026-05-06 14:18 21.32744 -157.93250 12 ft 17 kts 270°
2026-05-06 14:18 21.32743 -157.93377 11 ft 17 kts 270°
2026-05-06 14:18 21.32743 -157.93503 12 ft 16 kts 270°
2026-05-06 14:18 21.32742 -157.93619 14 ft 15 kts 270°
2026-05-06 14:19 21.32742 -157.93735 13 ft 17 kts 270°
2026-05-06 14:19 21.32742 -157.93868 12 ft 19 kts 270°
2026-05-06 14:19 21.32738 -157.94009 13 ft 19 kts 258°
2026-05-06 14:19 21.32657 -157.94110 14 ft 19 kts 211°
2026-05-06 14:20 21.32543 -157.94179 14 ft 19 kts 209°
2026-05-06 14:20 21.32431 -157.94247 17 ft 18 kts 209°
2026-05-06 14:20 21.32317 -157.94315 15 ft 20 kts 209°
2026-05-06 14:20 21.32195 -157.94388 16 ft 20 kts 209°
2026-05-06 14:21 21.32073 -157.94461 16 ft 20 kts 209°
2026-05-06 14:21 21.31948 -157.94535 18 ft 20 kts 209°
2026-05-06 14:21 21.31828 -157.94606 21 ft 19 kts 209°
2026-05-06 14:21 21.31702 -157.94659 20 ft 20 kts 186°
2026-05-06 14:22 21.31548 -157.94646 14 ft 23 kts 173°
2026-05-06 14:22 21.31386 -157.94626 14 ft 24 kts 173°
2026-05-06 14:22 21.31218 -157.94604 13 ft 25 kts 173°
2026-05-06 14:22 21.31044 -157.94581 12 ft 25 kts 173°
2026-05-06 14:23 21.30872 -157.94573 12 ft 25 kts 180°
2026-05-06 14:23 21.30763 -157.94573 11 ft 12 kts 180°
2026-05-06 14:23 21.30691 -157.94572 11 ft 6 kts 169°
2026-05-06 14:23 21.30682 -157.94544 12 ft 5 kts 93°
2026-05-06 14:24 21.30682 -157.94391 16 ft 50 kts 90°
2026-05-06 14:24 21.30684 -157.93779 15 ft 112 kts 90°
2026-05-06 14:24 21.30688 -157.92746 12 ft 163 kts 90°
2026-05-06 14:24 21.30689 -157.91390 271 ft 186 kts 91°
2026-05-06 14:25 21.30553 -157.90056 1076 ft 182 kts 112°
2026-05-06 14:25 21.29764 -157.89016 1718 ft 186 kts 148°
2026-05-06 14:25 21.28517 -157.88444 1923 ft 205 kts 161°
2026-05-06 14:25 21.27089 -157.87998 2050 ft 222 kts 164°
2026-05-06 14:26 21.25537 -157.87538 2171 ft 241 kts 164°
2026-05-06 14:26 21.23862 -157.87048 2324 ft 259 kts 164°
2026-05-06 14:26 21.22217 -157.86203 2655 ft 267 kts 138°
2026-05-06 14:26 21.21113 -157.84643 3107 ft 270 kts 114°
2026-05-06 14:27 21.20453 -157.82756 3589 ft 273 kts 99°
2026-05-06 14:27 21.20212 -157.80732 4099 ft 275 kts 96°
2026-05-06 14:27 21.20003 -157.78685 4599 ft 277 kts 96°
2026-05-06 14:27 21.19798 -157.76624 5127 ft 279 kts 96°
2026-05-06 14:28 21.19593 -157.74552 5646 ft 281 kts 96°
2026-05-06 14:28 21.19386 -157.72461 6141 ft 284 kts 97°
2026-05-06 14:28 21.19179 -157.70352 6628 ft 286 kts 97°
2026-05-06 14:28 21.18969 -157.68222 7082 ft 289 kts 97°
2026-05-06 14:29 21.18757 -157.66074 7544 ft 291 kts 97°
2026-05-06 14:29 21.18543 -157.63905 7979 ft 294 kts 96°
2026-05-06 14:29 21.18328 -157.61718 8430 ft 296 kts 96°
2026-05-06 14:29 21.18112 -157.59514 8862 ft 299 kts 96°
2026-05-06 14:30 21.17892 -157.57283 9289 ft 302 kts 96°
2026-05-06 14:30 21.17669 -157.55040 9716 ft 304 kts 96°
2026-05-06 14:30 21.17443 -157.52775 10048 ft 310 kts 96°
2026-05-06 14:30 21.17206 -157.50429 10165 ft 323 kts 96°
2026-05-06 14:31 21.16962 -157.47989 10285 ft 335 kts 96°
2026-05-06 14:31 21.16711 -157.45463 10404 ft 347 kts 96°
2026-05-06 14:31 21.16451 -157.42852 10525 ft 358 kts 96°
2026-05-06 14:31 21.16184 -157.40198 10649 ft 368 kts 96°
2026-05-06 14:32 21.15904 -157.37430 10768 ft 378 kts 96°
2026-05-06 14:32 21.15616 -157.34594 10889 ft 388 kts 96°
2026-05-06 14:32 21.15322 -157.31688 11008 ft 397 kts 96°
2026-05-06 14:32 21.15024 -157.28726 11131 ft 404 kts 96°
2026-05-06 14:33 21.14720 -157.25704 11250 ft 412 kts 96°
2026-05-06 14:33 21.14410 -157.22630 11444 ft 417 kts 96°
2026-05-06 14:33 21.14242 -157.19519 11711 ft 419 kts 89°
2026-05-06 14:33 21.14509 -157.16405 11991 ft 422 kts 80°
2026-05-06 14:34 21.15224 -157.13350 12257 ft 424 kts 71°
2026-05-06 14:34 21.16334 -157.10423 12523 ft 426 kts 66°
2026-05-06 14:34 21.17507 -157.07506 12793 ft 427 kts 66°
2026-05-06 14:34 21.18678 -157.04563 13066 ft 429 kts 67°
2026-05-06 14:35 21.19844 -157.01617 13334 ft 431 kts 67°
2026-05-06 14:35 21.21013 -156.98650 13594 ft 433 kts 67°
2026-05-06 14:35 21.22191 -156.95669 13852 ft 435 kts 67°
2026-05-06 14:35 21.23376 -156.92681 14080 ft 437 kts 67°
2026-05-06 14:36 21.24569 -156.89679 14309 ft 438 kts 67°
2026-05-06 14:36 21.25761 -156.86665 14534 ft 440 kts 67°
2026-05-06 14:36 21.26956 -156.83635 14756 ft 441 kts 67°
2026-05-06 14:36 21.28156 -156.80597 14991 ft 443 kts 67°
2026-05-06 14:37 21.29357 -156.77553 15222 ft 444 kts 67°
2026-05-06 14:37 21.30563 -156.74496 15423 ft 446 kts 67°
2026-05-06 14:37 21.31758 -156.71466 15659 ft 447 kts 67°
2026-05-06 14:37 21.32813 -156.68381 15887 ft 449 kts 74°
2026-05-06 14:38 21.33470 -156.65056 16121 ft 450 kts 83°
2026-05-06 14:38 21.33731 -156.61701 16346 ft 451 kts 86°
2026-05-06 14:38 21.33939 -156.58348 16574 ft 452 kts 86°
2026-05-06 14:38 21.34152 -156.54971 16798 ft 454 kts 86°
2026-05-06 14:39 21.34366 -156.51589 17019 ft 456 kts 86°
2026-05-06 14:39 21.34580 -156.48188 17248 ft 457 kts 86°
2026-05-06 14:39 21.34790 -156.44809 17460 ft 459 kts 86°
2026-05-06 14:39 21.35002 -156.41357 17684 ft 460 kts 86°
2026-05-06 14:40 21.35216 -156.37922 17901 ft 462 kts 86°
2026-05-06 14:40 21.35430 -156.34475 18094 ft 464 kts 86°
2026-05-06 14:40 21.35641 -156.31012 18295 ft 466 kts 86°
2026-05-06 14:40 21.35849 -156.27540 18478 ft 467 kts 86°
2026-05-06 14:41 21.36059 -156.24074 18663 ft 468 kts 86°
2026-05-06 14:41 21.36271 -156.20585 18865 ft 469 kts 86°
2026-05-06 14:41 21.36485 -156.17095 19051 ft 470 kts 86°
2026-05-06 14:41 21.36698 -156.13594 19234 ft 471 kts 86°
2026-05-06 14:42 21.36911 -156.10095 19420 ft 471 kts 86°
2026-05-06 14:42 21.37125 -156.06581 19600 ft 472 kts 86°
2026-05-06 14:42 21.37337 -156.03058 19774 ft 473 kts 86°
2026-05-06 14:42 21.37544 -155.99531 19947 ft 474 kts 86°
2026-05-06 14:43 21.37751 -155.95998 20121 ft 475 kts 86°
2026-05-06 14:43 21.37958 -155.92448 20294 ft 476 kts 86°
2026-05-06 14:43 21.38166 -155.88899 20465 ft 477 kts 86°
2026-05-06 14:43 21.38374 -155.85347 20639 ft 478 kts 86°
2026-05-06 14:44 21.38583 -155.81776 20813 ft 479 kts 86°
2026-05-06 14:44 21.38792 -155.78203 20985 ft 480 kts 86°
2026-05-06 14:44 21.38999 -155.74624 21157 ft 481 kts 86°
2026-05-06 14:45 21.39406 -155.67482 21501 ft 483 kts 86°
2026-05-06 14:45 21.39612 -155.63889 21670 ft 484 kts 86°
2026-05-06 14:45 21.39817 -155.60279 21833 ft 485 kts 86°
2026-05-06 14:45 21.40024 -155.56656 21990 ft 486 kts 86°
2026-05-06 14:46 21.40232 -155.53034 22153 ft 487 kts 86°
2026-05-06 14:46 21.40438 -155.49403 22310 ft 488 kts 86°
2026-05-06 14:46 21.40645 -155.45754 22468 ft 489 kts 86°
2026-05-06 14:46 21.40852 -155.42108 22621 ft 490 kts 86°
2026-05-06 14:47 21.41057 -155.38453 22764 ft 491 kts 86°
2026-05-06 14:47 21.41258 -155.34798 22905 ft 492 kts 86°
2026-05-06 14:47 21.41458 -155.31131 23038 ft 493 kts 86°
2026-05-06 14:47 21.41659 -155.27456 23169 ft 493 kts 86°
2026-05-06 14:48 21.41793 -155.25016 23254 ft 494 kts 86°
2026-05-06 14:48 21.41994 -155.21338 23386 ft 494 kts 86°
2026-05-06 14:48 21.42193 -155.17648 23517 ft 495 kts 86°
2026-05-06 14:48 21.42410 -155.14037 23637 ft 494 kts 83°
2026-05-06 14:49 21.42928 -155.10325 23748 ft 494 kts 79°
2026-05-06 14:49 21.43485 -155.06684 23858 ft 494 kts 79°
2026-05-06 14:49 21.44037 -155.03045 23993 ft 494 kts 80°
2026-05-06 14:49 21.44586 -154.99399 24116 ft 494 kts 80°
2026-05-06 14:50 21.45134 -154.95764 24264 ft 493 kts 80°
2026-05-06 14:50 21.45682 -154.92134 24392 ft 493 kts 80°
2026-05-06 14:50 21.46227 -154.88499 24519 ft 493 kts 80°
2026-05-06 14:50 21.46772 -154.84865 24672 ft 493 kts 80°
2026-05-06 14:51 21.47316 -154.81236 24821 ft 492 kts 80°
2026-05-06 14:51 21.47857 -154.77616 24972 ft 492 kts 80°
2026-05-06 14:51 21.48397 -154.73988 25123 ft 491 kts 80°
2026-05-06 14:51 21.48934 -154.70363 25279 ft 491 kts 80°
2026-05-06 14:52 21.49470 -154.66744 25424 ft 490 kts 80°
2026-05-06 14:52 21.50006 -154.63133 25574 ft 490 kts 80°
2026-05-06 14:52 21.50541 -154.59524 25729 ft 490 kts 80°
2026-05-06 14:52 21.51069 -154.55958 25885 ft 489 kts 80°
2026-05-06 14:53 21.51611 -154.52307 26041 ft 489 kts 80°
2026-05-06 14:53 21.52140 -154.48754 26204 ft 488 kts 80°
2026-05-06 14:53 21.52671 -154.45157 26366 ft 488 kts 80°
2026-05-06 14:53 21.53198 -154.41553 26528 ft 488 kts 80°
2026-05-06 14:54 21.53726 -154.37961 26691 ft 487 kts 80°
2026-05-06 14:54 21.54253 -154.34362 26847 ft 487 kts 80°
2026-05-06 14:54 21.54779 -154.30764 26991 ft 487 kts 80°
2026-05-06 14:54 21.55301 -154.27173 27157 ft 487 kts 80°
2026-05-06 14:55 21.55825 -154.23573 27324 ft 486 kts 80°
2026-05-06 14:55 21.56349 -154.19983 27487 ft 486 kts 80°
2026-05-06 14:55 21.56875 -154.16398 27661 ft 486 kts 80°
2026-05-06 14:55 21.57388 -154.12892 27825 ft 485 kts 80°
2026-05-06 14:56 21.57921 -154.09231 27997 ft 485 kts 80°
2026-05-06 14:56 21.58438 -154.05655 28165 ft 484 kts 80°
2026-05-06 14:56 21.58956 -154.02083 28353 ft 484 kts 80°
2026-05-06 14:56 21.59471 -153.98515 28534 ft 483 kts 80°
2026-05-06 14:57 21.59984 -153.94953 28705 ft 482 kts 80°
2026-05-06 14:57 21.60495 -153.91395 28865 ft 482 kts 80°
2026-05-06 14:57 21.61002 -153.87860 29038 ft 481 kts 80°
2026-05-06 14:57 21.61496 -153.84409 29197 ft 481 kts 80°
2026-05-06 14:58 21.62021 -153.80734 29363 ft 481 kts 80°
2026-05-06 14:58 21.62524 -153.77227 29523 ft 480 kts 80°
2026-05-06 14:58 21.63033 -153.73685 29684 ft 480 kts 79°
2026-05-06 14:58 21.63543 -153.70141 29836 ft 480 kts 80°
2026-05-06 14:59 21.64050 -153.66591 29976 ft 479 kts 80°
2026-05-06 14:59 21.64554 -153.63052 30133 ft 479 kts 80°
2026-05-06 14:59 21.65055 -153.59511 30259 ft 479 kts 80°
2026-05-06 14:59 21.65549 -153.56014 30373 ft 479 kts 80°
2026-05-06 15:00 21.66055 -153.52430 30490 ft 479 kts 80°
2026-05-06 15:00 21.66556 -153.48893 30608 ft 479 kts 80°
2026-05-06 15:00 21.67057 -153.45352 30723 ft 479 kts 80°
2026-05-06 15:00 21.67558 -153.41810 30841 ft 479 kts 80°
2026-05-06 15:01 21.68055 -153.38277 30986 ft 478 kts 80°
2026-05-06 15:01 21.69053 -153.31178 31063 ft 482 kts 80°
2026-05-06 15:02 21.70060 -153.24007 31063 ft 487 kts 80°
2026-05-06 15:02 21.71158 -153.16812 31064 ft 487 kts 74°
2026-05-06 15:03 21.73660 -153.10121 31065 ft 482 kts 59°
2026-05-06 15:03 21.76857 -153.03846 31066 ft 481 kts 59°
2026-05-06 15:04 21.80056 -152.97515 31071 ft 481 kts 59°
2026-05-06 15:04 21.83240 -152.91172 31075 ft 481 kts 59°
2026-05-06 15:05 21.86423 -152.84832 31078 ft 482 kts 59°
2026-05-06 15:05 21.89612 -152.78484 31076 ft 482 kts 59°
2026-05-06 15:06 21.92811 -152.72125 31076 ft 483 kts 59°
2026-05-06 15:06 21.96004 -152.65761 31087 ft 483 kts 59°
2026-05-06 15:07 21.99195 -152.59396 31089 ft 482 kts 59°
2026-05-06 15:07 22.02378 -152.53037 31089 ft 482 kts 59°
2026-05-06 15:08 22.05536 -152.46705 31091 ft 482 kts 60°
2026-05-06 15:08 22.08717 -152.40336 31090 ft 482 kts 59°
2026-05-06 15:09 22.11889 -152.33963 31086 ft 482 kts 60°
2026-05-06 15:09 22.15064 -152.27585 31089 ft 482 kts 60°
2026-05-06 15:10 22.18238 -152.21205 31100 ft 482 kts 60°
2026-05-06 15:10 22.21410 -152.14818 31096 ft 482 kts 60°
2026-05-06 15:11 22.24570 -152.08436 31094 ft 482 kts 60°
2026-05-06 15:11 22.27710 -152.02105 31094 ft 482 kts 59°
2026-05-06 15:12 22.30883 -151.95716 31090 ft 482 kts 60°
2026-05-06 15:12 22.34037 -151.89315 31087 ft 482 kts 60°
2026-05-06 15:13 22.37173 -151.82916 31103 ft 482 kts 60°
2026-05-06 15:13 22.40310 -151.76514 31100 ft 482 kts 60°
2026-05-06 15:14 22.43447 -151.70104 31096 ft 482 kts 60°
2026-05-06 15:14 22.46577 -151.63698 31096 ft 482 kts 60°
2026-05-06 15:15 22.49707 -151.57284 31093 ft 482 kts 60°
2026-05-06 15:15 22.52834 -151.50870 31098 ft 482 kts 60°
2026-05-06 15:16 22.55953 -151.44460 31099 ft 482 kts 60°
2026-05-06 15:16 22.59077 -151.38049 31099 ft 482 kts 60°
2026-05-06 15:17 22.62198 -151.31623 31093 ft 482 kts 60°
2026-05-06 15:17 22.65309 -151.25203 31094 ft 482 kts 60°
2026-05-06 15:18 22.68427 -151.18770 31097 ft 482 kts 60°
2026-05-06 15:18 22.71520 -151.12380 31098 ft 482 kts 60°
2026-05-06 15:19 22.74629 -151.05932 31099 ft 482 kts 60°
2026-05-06 15:19 22.77743 -150.99491 31107 ft 483 kts 60°
2026-05-06 15:20 22.80851 -150.93037 31104 ft 483 kts 60°
2026-05-06 15:20 22.83955 -150.86588 31103 ft 483 kts 60°
2026-05-06 15:21 22.87061 -150.80132 31106 ft 483 kts 60°
2026-05-06 15:21 22.90155 -150.73687 31107 ft 483 kts 60°
2026-05-06 15:22 22.93217 -150.67301 31102 ft 483 kts 60°
2026-05-06 15:22 22.96345 -150.60758 31106 ft 483 kts 60°
2026-05-06 15:23 22.99449 -150.54253 31112 ft 483 kts 60°
2026-05-06 15:23 23.02543 -150.47782 31113 ft 483 kts 60°
2026-05-06 15:24 23.05642 -150.41316 31107 ft 483 kts 60°
2026-05-06 15:24 23.08728 -150.34836 31108 ft 483 kts 60°
2026-05-06 15:25 23.11803 -150.28343 31111 ft 483 kts 60°
2026-05-06 15:25 23.14884 -150.21853 31118 ft 483 kts 60°
2026-05-06 15:26 23.17944 -150.15407 31124 ft 483 kts 60°
2026-05-06 15:26 23.21028 -150.08912 31116 ft 483 kts 60°
2026-05-06 15:27 23.24100 -150.02424 31119 ft 483 kts 60°
2026-05-06 15:27 23.27171 -149.95915 31117 ft 483 kts 60°
2026-05-06 15:28 23.30238 -149.89403 31119 ft 483 kts 60°
2026-05-06 15:28 23.33291 -149.82922 31117 ft 484 kts 60°
2026-05-06 15:29 23.36380 -149.76381 31123 ft 484 kts 60°
2026-05-06 15:29 23.39447 -149.69857 31125 ft 484 kts 60°
2026-05-06 15:30 23.42509 -149.63335 31122 ft 484 kts 60°
2026-05-06 15:30 23.45573 -149.56811 31128 ft 484 kts 60°
2026-05-06 15:31 23.48630 -149.50279 31118 ft 484 kts 60°
2026-05-06 15:31 23.51682 -149.43734 31126 ft 485 kts 60°
2026-05-06 15:32 23.56215 -149.34030 31132 ft 485 kts 60°
2026-05-06 15:32 23.59318 -149.27354 31130 ft 485 kts 61°
2026-05-06 15:33 23.62355 -149.20829 31126 ft 485 kts 60°
2026-05-06 15:33 23.65409 -149.14270 31132 ft 485 kts 61°
2026-05-06 15:34 23.68439 -149.07731 31125 ft 485 kts 61°
2026-05-06 15:34 23.71495 -149.01149 31127 ft 485 kts 61°
2026-05-06 15:35 23.74518 -148.94615 31135 ft 485 kts 61°
2026-05-06 15:35 23.77552 -148.88030 31133 ft 485 kts 61°
2026-05-06 15:36 23.80554 -148.81526 31132 ft 485 kts 61°
2026-05-06 15:36 23.83624 -148.74875 31135 ft 485 kts 61°
2026-05-06 15:37 23.86652 -148.68298 31135 ft 485 kts 61°
2026-05-06 15:37 23.89676 -148.61708 31136 ft 485 kts 61°
2026-05-06 15:38 23.92178 -148.56249 31139 ft 485 kts 61°
2026-05-06 15:38 23.95208 -148.49639 31144 ft 485 kts 61°
2026-05-06 15:39 23.98222 -148.43041 31138 ft 485 kts 61°
2026-05-06 15:39 24.01243 -148.36450 31140 ft 485 kts 61°
2026-05-06 15:40 24.04257 -148.29857 31141 ft 485 kts 61°
2026-05-06 15:40 24.07243 -148.23297 31143 ft 485 kts 61°
2026-05-06 15:41 24.10251 -148.16678 31139 ft 485 kts 61°
2026-05-06 15:41 24.13266 -148.10064 31148 ft 485 kts 61°
2026-05-06 15:42 24.16268 -148.03451 31152 ft 485 kts 61°
2026-05-06 15:42 24.19261 -147.96826 31153 ft 485 kts 61°
2026-05-06 15:43 24.22251 -147.90209 31148 ft 485 kts 61°
2026-05-06 15:43 24.25254 -147.83572 31145 ft 485 kts 61°
2026-05-06 15:44 24.28256 -147.76938 31152 ft 486 kts 61°
2026-05-06 15:44 24.31248 -147.70296 31157 ft 486 kts 61°
2026-05-06 15:45 24.34232 -147.63656 31152 ft 486 kts 61°
2026-05-06 15:45 24.37224 -147.57006 31152 ft 486 kts 62°
2026-05-06 15:46 24.40211 -147.50354 31153 ft 486 kts 62°
2026-05-06 15:46 24.43198 -147.43698 31154 ft 487 kts 62°
2026-05-06 15:47 24.46155 -147.37077 31379 ft 486 kts 62°
2026-05-06 15:47 24.47639 -147.33750 31503 ft 485 kts 62°
2026-05-06 15:47 24.49124 -147.30422 31622 ft 485 kts 62°
2026-05-06 15:48 24.50606 -147.27104 31745 ft 484 kts 62°
2026-05-06 15:48 24.52088 -147.23784 31862 ft 484 kts 62°
2026-05-06 15:48 24.53564 -147.20465 31986 ft 484 kts 62°
2026-05-06 15:48 24.55039 -147.17145 32109 ft 483 kts 62°
2026-05-06 15:49 24.56515 -147.13829 32233 ft 483 kts 62°
2026-05-06 15:49 24.57987 -147.10516 32358 ft 483 kts 62°
2026-05-06 15:49 24.59457 -147.07201 32480 ft 482 kts 62°
2026-05-06 15:49 24.60926 -147.03886 32608 ft 482 kts 62°
2026-05-06 15:50 24.62393 -147.00585 32735 ft 481 kts 62°
2026-05-06 15:50 24.63861 -146.97283 32881 ft 481 kts 62°
2026-05-06 15:50 24.65330 -146.93983 33007 ft 480 kts 62°
2026-05-06 15:50 24.66788 -146.90693 33133 ft 480 kts 62°
2026-05-06 15:51 24.69724 -146.84055 33140 ft 484 kts 62°
2026-05-06 15:51 24.72665 -146.77379 33152 ft 485 kts 62°
2026-05-06 15:52 24.75609 -146.70706 33145 ft 485 kts 62°
2026-05-06 15:52 24.78559 -146.64026 33154 ft 485 kts 62°
2026-05-06 15:53 24.81500 -146.57343 33154 ft 485 kts 62°
2026-05-06 15:53 24.84411 -146.50684 33168 ft 486 kts 62°
2026-05-06 15:54 24.87365 -146.43937 33174 ft 486 kts 62°
2026-05-06 15:54 24.90284 -146.37277 33180 ft 486 kts 62°
2026-05-06 15:55 24.93220 -146.30574 33174 ft 486 kts 62°
2026-05-06 15:55 24.96157 -146.23855 33178 ft 486 kts 62°
2026-05-06 15:56 24.99077 -146.17144 33177 ft 486 kts 62°
2026-05-06 15:56 25.01997 -146.10424 33175 ft 486 kts 62°
2026-05-06 15:57 25.04919 -146.03698 33185 ft 486 kts 62°
2026-05-06 15:57 25.07837 -145.96967 33181 ft 486 kts 63°
2026-05-06 15:58 25.10698 -145.90338 33188 ft 486 kts 63°
2026-05-06 15:58 25.13643 -145.83534 33190 ft 486 kts 62°
2026-05-06 15:59 25.16554 -145.76799 33181 ft 486 kts 63°
2026-05-06 15:59 25.19459 -145.70053 33192 ft 486 kts 63°
2026-05-06 16:00 25.22368 -145.63302 33187 ft 487 kts 63°
2026-05-06 16:00 25.25268 -145.56553 33188 ft 487 kts 63°
2026-05-06 16:01 25.28167 -145.49788 33196 ft 487 kts 63°
2026-05-06 16:01 25.31048 -145.43069 33197 ft 487 kts 63°
2026-05-06 16:02 25.33960 -145.36259 33193 ft 487 kts 63°
2026-05-06 16:02 25.36843 -145.29486 33188 ft 487 kts 63°
2026-05-06 16:03 25.39701 -145.22777 33196 ft 487 kts 63°